Time,TemperatureF,DewpointF,PressureIn,WindDirection,WindDirectionDegrees,WindSpeedMPH,WindSpeedGustMPH,Humidity,HourlyPrecipIn,Conditions,Clouds,dailyrainin,SoftwareType,DateUTC
2013-01-29 00:02:00,32.6,32.0,29.59,ENE,58,1.0,2.0,99,0.00,,,0.00,weatherlink.com 1.10,2013-01-29 06:02:00,
2013-01-29 00:17:00,32.6,32.0,29.58,NE,40,0.0,3.0,99,0.00,,,0.00,weatherlink.com 1.10,2013-01-29 06:17:00,
2013-01-29 00:33:00,32.6,32.0,29.58,NE,39,1.0,2.0,99,0.00,,,0.00,weatherlink.com 1.10,2013-01-29 06:33:00,
2013-01-29 00:48:00,32.7,33.0,29.58,ESE,118,0.0,2.0,99,0.00,,,0.00,weatherlink.com 1.10,2013-01-29 06:48:00,
2013-01-29 01:03:00,32.7,33.0,29.59,NW,304,3.0,5.0,99,0.00,,,0.00,weatherlink.com 1.10,2013-01-29 07:03:00,
2013-01-29 01:18:00,32.6,32.0,29.60,WNW,302,3.0,9.0,99,0.00,,,0.00,weatherlink.com 1.10,2013-01-29 07:18:00,
2013-01-29 01:33:00,32.7,33.0,29.60,NW,304,5.0,7.0,99,0.00,,,0.00,weatherlink.com 1.10,2013-01-29 07:33:00,
2013-01-29 01:48:00,32.5,32.0,29.60,NW,313,3.0,8.0,99,0.00,,,0.00,weatherlink.com 1.10,2013-01-29 07:48:00,
2013-01-29 02:03:00,32.5,32.0,29.60,NNW,331,2.0,5.0,99,0.00,,,0.00,weatherlink.com 1.10,2013-01-29 08:03:00,
2013-01-29 02:18:00,32.5,32.0,29.60,NW,320,4.0,6.0,99,0.00,,,0.00,weatherlink.com 1.10,2013-01-29 08:18:00,
2013-01-29 02:33:00,32.5,32.0,29.60,NW,304,4.0,7.0,99,0.01,,,0.01,weatherlink.com 1.10,2013-01-29 08:33:00,
2013-01-29 02:48:00,32.2,32.0,29.60,NNE,23,7.0,12.0,99,0.01,,,0.01,weatherlink.com 1.10,2013-01-29 08:48:00,
2013-01-29 03:03:00,31.9,32.0,29.60,NW,323,7.0,10.0,99,0.01,,,0.01,weatherlink.com 1.10,2013-01-29 09:03:00,
2013-01-29 03:18:00,31.8,32.0,29.62,NW,304,10.0,13.0,99,0.01,,,0.01,weatherlink.com 1.10,2013-01-29 09:18:00,
2013-01-29 03:33:00,31.6,31.0,29.63,NNW,338,11.0,18.0,99,0.00,,,0.01,weatherlink.com 1.10,2013-01-29 09:33:00,
2013-01-29 03:48:00,31.4,31.0,29.59,West,278,8.0,12.0,99,0.00,,,0.01,weatherlink.com 1.10,2013-01-29 09:48:00,
2013-01-29 04:03:00,31.2,31.0,29.58,NW,308,4.0,16.0,99,0.00,,,0.01,weatherlink.com 1.10,2013-01-29 10:03:00,
2013-01-29 04:18:00,31.1,31.0,29.61,NW,321,14.0,17.0,99,0.00,,,0.01,weatherlink.com 1.10,2013-01-29 10:18:00,
2013-01-29 04:33:00,31.1,31.0,29.61,NW,309,9.0,15.0,99,0.00,,,0.01,weatherlink.com 1.10,2013-01-29 10:33:00,
2013-01-29 04:48:00,31.0,31.0,29.61,ENE,63,13.0,15.0,99,0.00,,,0.01,weatherlink.com 1.10,2013-01-29 10:48:00,
2013-01-29 05:03:00,30.9,31.0,29.61,NW,308,3.0,12.0,99,0.00,,,0.01,weatherlink.com 1.10,2013-01-29 11:03:00,
2013-01-29 05:18:00,30.9,31.0,29.61,NNW,338,9.0,15.0,99,0.00,,,0.01,weatherlink.com 1.10,2013-01-29 11:18:00,
2013-01-29 05:33:00,31.0,31.0,29.61,NNE,23,11.0,11.0,99,0.00,,,0.01,weatherlink.com 1.10,2013-01-29 11:33:00,
2013-01-29 05:48:00,30.8,30.0,29.59,NNW,333,10.0,17.0,98,0.00,,,0.01,weatherlink.com 1.10,2013-01-29 11:48:00,
2013-01-29 06:03:00,30.8,30.0,29.61,NW,325,8.0,16.0,98,0.00,,,0.01,weatherlink.com 1.10,2013-01-29 12:03:00,
2013-01-29 06:18:00,30.9,30.0,29.63,NW,320,8.0,13.0,97,0.00,,,0.01,weatherlink.com 1.10,2013-01-29 12:18:00,
2013-01-29 06:33:00,30.6,30.0,29.63,NNW,329,9.0,16.0,97,0.00,,,0.01,weatherlink.com 1.10,2013-01-29 12:33:00,
2013-01-29 06:48:00,30.3,29.0,29.64,NW,324,11.0,13.0,96,0.00,,,0.01,weatherlink.com 1.10,2013-01-29 12:48:00,
2013-01-29 07:03:00,30.0,29.0,29.63,North,357,9.0,15.0,95,0.00,,,0.01,weatherlink.com 1.10,2013-01-29 13:03:00,
2013-01-29 07:18:00,29.9,29.0,29.67,North,352,10.0,20.0,95,0.00,,,0.01,weatherlink.com 1.10,2013-01-29 13:18:00,
2013-01-29 07:33:00,29.6,28.0,29.66,NNW,333,11.0,20.0,95,0.00,,,0.01,weatherlink.com 1.10,2013-01-29 13:33:00,
2013-01-29 07:48:00,29.0,28.0,29.66,NW,319,10.0,23.0,94,0.00,,,0.01,weatherlink.com 1.10,2013-01-29 13:48:00,
2013-01-29 08:03:00,28.8,27.0,29.67,East,79,14.0,20.0,94,0.00,,,0.01,weatherlink.com 1.10,2013-01-29 14:03:00,
2013-01-29 08:18:00,28.4,27.0,29.66,NNW,342,20.0,25.0,94,0.00,,,0.01,weatherlink.com 1.10,2013-01-29 14:18:00,
2013-01-29 08:33:00,28.6,27.0,29.66,NNW,333,9.0,20.0,95,0.00,,,0.01,weatherlink.com 1.10,2013-01-29 14:33:00,
2013-01-29 08:48:00,28.5,27.0,29.68,NNW,342,12.0,22.0,95,0.00,,,0.01,weatherlink.com 1.10,2013-01-29 14:48:00,
2013-01-29 09:04:00,28.3,27.0,29.68,North,352,14.0,23.0,95,0.00,,,0.01,weatherlink.com 1.10,2013-01-29 15:04:00,
2013-01-29 09:19:00,28.3,27.0,29.69,NNE,13,11.0,16.0,96,0.00,,,0.01,weatherlink.com 1.10,2013-01-29 15:19:00,
2013-01-29 09:34:00,28.8,28.0,29.69,NNE,33,13.0,16.0,95,0.00,,,0.01,weatherlink.com 1.10,2013-01-29 15:34:00,
2013-01-29 09:49:00,29.1,28.0,29.69,NW,325,11.0,15.0,95,0.00,,,0.01,weatherlink.com 1.10,2013-01-29 15:49:00,
2013-01-29 10:04:00,29.3,28.0,29.68,NNW,332,7.0,13.0,95,0.00,,,0.01,weatherlink.com 1.10,2013-01-29 16:04:00,
2013-01-29 10:19:00,29.6,28.0,29.71,NW,315,6.0,13.0,95,0.00,,,0.01,weatherlink.com 1.10,2013-01-29 16:19:00,
2013-01-29 10:34:00,29.6,28.0,29.71,NW,322,6.0,15.0,94,0.00,,,0.01,weatherlink.com 1.10,2013-01-29 16:34:00,
2013-01-29 10:49:00,29.4,28.0,29.72,NNW,339,9.0,20.0,94,0.00,,,0.01,weatherlink.com 1.10,2013-01-29 16:49:00,
2013-01-29 11:04:00,29.5,28.0,29.73,NW,321,11.0,19.0,95,0.00,,,0.01,weatherlink.com 1.10,2013-01-29 17:04:00,
2013-01-29 11:19:00,29.6,28.0,29.73,NNW,341,13.0,19.0,94,0.00,,,0.01,weatherlink.com 1.10,2013-01-29 17:19:00,
2013-01-29 11:34:00,29.7,28.0,29.72,North,8,7.0,16.0,94,0.00,,,0.01,weatherlink.com 1.10,2013-01-29 17:34:00,
2013-01-29 11:49:00,29.6,28.0,29.70,NE,42,8.0,16.0,94,0.00,,,0.01,weatherlink.com 1.10,2013-01-29 17:49:00,
2013-01-29 12:19:00,29.5,28.0,29.69,North,358,7.0,18.0,94,0.00,,,0.01,weatherlink.com 1.10,2013-01-29 18:19:00,
2013-01-29 12:34:00,29.5,28.0,29.68,North,1,16.0,21.0,94,0.00,,,0.01,weatherlink.com 1.10,2013-01-29 18:34:00,
2013-01-29 12:49:00,29.4,28.0,29.68,NNW,331,11.0,18.0,95,0.00,,,0.01,weatherlink.com 1.10,2013-01-29 18:49:00,
2013-01-29 13:04:00,29.8,29.0,29.68,North,2,14.0,19.0,95,0.00,,,0.01,weatherlink.com 1.10,2013-01-29 19:04:00,
2013-01-29 13:19:00,30.6,29.0,29.68,NNE,15,12.0,20.0,94,0.00,,,0.01,weatherlink.com 1.10,2013-01-29 19:19:00,
2013-01-29 13:34:00,30.7,29.0,29.68,NNW,342,13.0,20.0,93,0.00,,,0.01,weatherlink.com 1.10,2013-01-29 19:34:00,
2013-01-29 13:49:00,31.1,29.0,29.68,North,349,10.0,17.0,93,0.00,,,0.01,weatherlink.com 1.10,2013-01-29 19:49:00,
2013-01-29 14:04:00,31.2,29.0,29.68,North,357,9.0,18.0,93,0.00,,,0.01,weatherlink.com 1.10,2013-01-29 20:04:00,
2013-01-29 14:19:00,31.3,29.0,29.68,North,351,10.0,17.0,92,0.00,,,0.01,weatherlink.com 1.10,2013-01-29 20:19:00,
2013-01-29 14:34:00,31.3,30.0,29.68,North,8,9.0,17.0,93,0.00,,,0.01,weatherlink.com 1.10,2013-01-29 20:34:00,
2013-01-29 14:49:00,31.2,29.0,29.68,WNW,297,6.0,18.0,93,0.00,,,0.01,weatherlink.com 1.10,2013-01-29 20:49:00,
2013-01-29 15:04:00,31.1,29.0,29.70,NW,320,10.0,20.0,93,0.00,,,0.01,weatherlink.com 1.10,2013-01-29 21:04:00,
2013-01-29 15:19:00,30.9,29.0,29.69,WNW,297,8.0,20.0,92,0.00,,,0.01,weatherlink.com 1.10,2013-01-29 21:19:00,
2013-01-29 15:34:00,30.8,29.0,29.68,West,271,7.0,18.0,92,0.00,,,0.01,weatherlink.com 1.10,2013-01-29 21:34:00,
2013-01-29 15:49:00,30.3,28.0,29.69,North,358,8.0,19.0,92,0.00,,,0.01,weatherlink.com 1.10,2013-01-29 21:49:00,
2013-01-29 16:04:00,30.1,28.0,29.70,NE,40,17.0,19.0,93,0.00,,,0.01,weatherlink.com 1.10,2013-01-29 22:04:00,
2013-01-29 16:19:00,29.8,28.0,29.69,NW,314,13.0,18.0,93,0.00,,,0.01,weatherlink.com 1.10,2013-01-29 22:19:00,
2013-01-29 16:34:00,29.6,28.0,29.69,NNW,335,9.0,19.0,94,0.00,,,0.01,weatherlink.com 1.10,2013-01-29 22:34:00,
2013-01-29 16:49:00,29.1,27.0,29.69,NNW,331,13.0,19.0,93,0.00,,,0.01,weatherlink.com 1.10,2013-01-29 22:49:00,
2013-01-29 17:04:00,28.9,27.0,29.71,NW,312,12.0,19.0,94,0.00,,,0.01,weatherlink.com 1.10,2013-01-29 23:04:00,
2013-01-29 17:19:00,28.8,27.0,29.71,ENE,65,16.0,19.0,94,0.00,,,0.01,weatherlink.com 1.10,2013-01-29 23:19:00,
2013-01-29 17:34:00,28.7,27.0,29.72,NW,319,6.0,16.0,94,0.00,,,0.01,weatherlink.com 1.10,2013-01-29 23:34:00,
2013-01-29 17:49:00,28.3,27.0,29.71,NNW,333,9.0,17.0,93,0.00,,,0.01,weatherlink.com 1.10,2013-01-29 23:49:00,
2013-01-29 18:04:00,28.0,26.0,29.72,NNE,12,9.0,18.0,92,0.00,,,0.01,weatherlink.com 1.10,2013-01-30 00:04:00,
2013-01-29 18:19:00,26.7,25.0,29.69,North,11,13.0,22.0,91,0.00,,,0.01,weatherlink.com 1.10,2013-01-30 00:19:00,
2013-01-29 18:34:00,25.8,24.0,29.72,NNW,344,17.0,24.0,93,0.00,,,0.01,weatherlink.com 1.10,2013-01-30 00:34:00,
2013-01-29 18:49:00,25.2,23.0,29.73,WNW,300,8.0,22.0,92,0.00,,,0.01,weatherlink.com 1.10,2013-01-30 00:49:00,
2013-01-29 19:04:00,24.7,23.0,29.75,NNW,331,14.0,24.0,93,0.00,,,0.01,weatherlink.com 1.10,2013-01-30 01:04:00,
2013-01-29 19:19:00,24.3,23.0,29.74,NNE,22,14.0,23.0,93,0.00,,,0.01,weatherlink.com 1.10,2013-01-30 01:19:00,
2013-01-29 19:34:00,23.9,23.0,29.75,North,354,16.0,22.0,94,0.00,,,0.01,weatherlink.com 1.10,2013-01-30 01:34:00,
2013-01-29 19:49:00,23.6,22.0,29.76,North,8,7.0,21.0,94,0.00,,,0.01,weatherlink.com 1.10,2013-01-30 01:49:00,
2013-01-29 20:04:00,23.1,22.0,29.76,NNW,341,12.0,28.0,94,0.00,,,0.01,weatherlink.com 1.10,2013-01-30 02:04:00,
2013-01-29 20:19:00,22.9,22.0,29.75,NNW,342,10.0,28.0,94,0.00,,,0.01,weatherlink.com 1.10,2013-01-30 02:19:00,
2013-01-29 20:34:00,22.8,21.0,29.73,North,9,13.0,24.0,94,0.00,,,0.01,weatherlink.com 1.10,2013-01-30 02:34:00,
2013-01-29 20:49:00,22.8,21.0,29.74,NNE,12,14.0,28.0,94,0.00,,,0.01,weatherlink.com 1.10,2013-01-30 02:49:00,
2013-01-29 21:04:00,22.5,21.0,29.75,NNW,335,17.0,27.0,94,0.00,,,0.01,weatherlink.com 1.10,2013-01-30 03:04:00,
2013-01-29 21:20:00,22.2,21.0,29.77,WNW,293,17.0,24.0,94,0.00,,,0.01,weatherlink.com 1.10,2013-01-30 03:20:00,
2013-01-29 21:35:00,22.1,20.0,29.78,NNW,346,19.0,27.0,93,0.00,,,0.01,weatherlink.com 1.10,2013-01-30 03:35:00,
2013-01-29 21:50:00,21.9,20.0,29.78,NNW,328,19.0,26.0,93,0.00,,,0.01,weatherlink.com 1.10,2013-01-30 03:50:00,
2013-01-29 22:05:00,21.6,20.0,29.75,North,2,15.0,28.0,93,0.00,,,0.01,weatherlink.com 1.10,2013-01-30 04:05:00,
2013-01-29 22:20:00,21.7,20.0,29.78,NNE,13,20.0,27.0,94,0.00,,,0.01,weatherlink.com 1.10,2013-01-30 04:20:00,
2013-01-29 22:35:00,21.5,20.0,29.76,NW,316,9.0,31.0,93,0.00,,,0.01,weatherlink.com 1.10,2013-01-30 04:35:00,
2013-01-29 22:50:00,21.4,20.0,29.75,NNW,348,14.0,26.0,94,0.00,,,0.01,weatherlink.com 1.10,2013-01-30 04:50:00,
2013-01-29 23:05:00,21.3,20.0,29.75,North,1,12.0,30.0,94,0.00,,,0.01,weatherlink.com 1.10,2013-01-30 05:05:00,
2013-01-29 23:20:00,21.2,20.0,29.76,NNW,327,28.0,30.0,94,0.00,,,0.01,weatherlink.com 1.10,2013-01-30 05:20:00,
2013-01-29 23:35:00,21.0,19.0,29.74,NW,323,17.0,30.0,93,0.00,,,0.01,weatherlink.com 1.10,2013-01-30 05:35:00,
2013-01-29 23:50:00,20.9,19.0,29.74,NNW,342,20.0,28.0,93,0.00,,,0.01,weatherlink.com 1.10,2013-01-30 05:50:00,